Location: ??
(35.5052°N, 139.7262°E)
Time: 17:11:54
(UTC+00:00)

Cosmos 841 Rocket - Pass Details

Date: 20 June 2021
Orbit: 747 x 772 km, 74.0° (Epoch: 30 July)

Event Time Altitude Azimuth Distance (km) Brightness Sun altitude
Exits shadow 15:23:38 43° 62° (ENE) 1,045 4.3 -30.3°
Drops below altitude 10° 15:27:28 10° 28° (NNE) 2,269 6.8 -30.1°
Sets 15:29:53 0° 24° (NNE) 3,196 7.9 -30.0°
